RYR47MZ LFOB-EGPH

Flight info

Callsign RYR47MZ
Flight time N/A
Altitude 38000
Route VESAN DCT RATUK DCT SOVAT L613 LEHOC DCT INPIP
Aircraft B738/M-SDE3FGILRWY/SB1

Departure

Time 2026-05-06 13:39
Airport Beauvais-Tillé airport (LFOB)

Arrival

Time N/A
Airport Edinburgh Airport (EGPH)
Time Latitude Longitude Altitude Speed Heading
2026-05-06 13:24 49.45926 2.11473 348 ft 0 kts 311°
2026-05-06 13:29 49.45925 2.11474 348 ft 2 kts 311°
2026-05-06 13:29 49.45910 2.11501 355 ft 2 kts 311°
2026-05-06 13:29 49.45896 2.11529 353 ft 4 kts 290°
2026-05-06 13:30 49.45893 2.11567 351 ft 4 kts 250°
2026-05-06 13:30 49.45901 2.11589 351 ft 0 kts 221°
2026-05-06 13:32 49.45900 2.11587 351 ft 1 kts 221°
2026-05-06 13:32 49.45882 2.11563 354 ft 5 kts 221°
2026-05-06 13:32 49.45849 2.11519 350 ft 7 kts 221°
2026-05-06 13:32 49.45802 2.11503 346 ft 7 kts 161°
2026-05-06 13:33 49.45763 2.11558 352 ft 8 kts 132°
2026-05-06 13:33 49.45719 2.11622 352 ft 9 kts 157°
2026-05-06 13:33 49.45667 2.11587 349 ft 9 kts 221°
2026-05-06 13:33 49.45615 2.11517 348 ft 12 kts 221°
2026-05-06 13:34 49.45547 2.11423 345 ft 14 kts 221°
2026-05-06 13:34 49.45472 2.11324 340 ft 14 kts 210°
2026-05-06 13:34 49.45402 2.11375 339 ft 14 kts 124°
2026-05-06 13:34 49.45341 2.11515 335 ft 18 kts 123°
2026-05-06 13:35 49.45263 2.11694 332 ft 22 kts 123°
2026-05-06 13:35 49.45181 2.11885 333 ft 21 kts 123°
2026-05-06 13:35 49.45102 2.12069 333 ft 21 kts 123°
2026-05-06 13:35 49.45025 2.12249 330 ft 20 kts 124°
2026-05-06 13:36 49.44942 2.12438 323 ft 22 kts 124°
2026-05-06 13:36 49.44850 2.12645 319 ft 24 kts 124°
2026-05-06 13:36 49.44757 2.12856 314 ft 23 kts 123°
2026-05-06 13:36 49.44684 2.13032 311 ft 14 kts 115°
2026-05-06 13:37 49.44671 2.13147 309 ft 8 kts 105°
2026-05-06 13:37 49.44636 2.13159 308 ft 3 kts 224°
2026-05-06 13:37 49.44640 2.13126 309 ft 3 kts 298°
2026-05-06 13:37 49.44643 2.13119 309 ft 0 kts 304°
2026-05-06 13:38 49.44648 2.13108 310 ft 12 kts 304°
2026-05-06 13:38 49.44841 2.12665 318 ft 86 kts 303°
2026-05-06 13:38 49.45295 2.11625 334 ft 147 kts 304°
2026-05-06 13:38 49.45907 2.10213 905 ft 155 kts 307°
2026-05-06 13:39 49.46569 2.08775 1250 ft 192 kts 309°
2026-05-06 13:39 49.47623 2.07475 1798 ft 201 kts 334°
2026-05-06 13:39 49.49056 2.07063 2172 ft 221 kts
2026-05-06 13:39 49.50598 2.07806 2518 ft 245 kts 29°
2026-05-06 13:40 49.52076 2.09177 3365 ft 250 kts 28°
2026-05-06 13:40 49.53566 2.10543 4400 ft 249 kts 28°
2026-05-06 13:40 49.55139 2.11638 5302 ft 252 kts
2026-05-06 13:40 49.56906 2.11766 6108 ft 259 kts 358°
2026-05-06 13:41 49.58709 2.11601 7040 ft 260 kts 355°
2026-05-06 13:41 49.60533 2.11375 7860 ft 265 kts 354°
2026-05-06 13:41 49.62391 2.11138 8718 ft 271 kts 354°
2026-05-06 13:41 49.64290 2.10899 9536 ft 278 kts 354°
2026-05-06 13:42 49.66226 2.10662 10390 ft 282 kts 354°
2026-05-06 13:42 49.68261 2.10419 10673 ft 306 kts 355°
2026-05-06 13:42 49.70469 2.10162 11012 ft 326 kts 355°
2026-05-06 13:42 49.72762 2.09899 11667 ft 334 kts 355°
2026-05-06 13:43 49.75086 2.09636 12485 ft 336 kts 356°
2026-05-06 13:43 49.77427 2.09372 13309 ft 340 kts 356°
2026-05-06 13:43 49.79803 2.09106 13975 ft 346 kts 356°
2026-05-06 13:43 49.82185 2.08840 14672 ft 349 kts 356°
2026-05-06 13:44 49.84613 2.08567 15407 ft 353 kts 356°
2026-05-06 13:44 49.87125 2.08285 16033 ft 360 kts 356°
2026-05-06 13:44 49.89643 2.08002 16660 ft 365 kts 355°
2026-05-06 13:44 49.92130 2.07721 17351 ft 369 kts 355°
2026-05-06 13:45 49.94731 2.07428 18019 ft 374 kts 355°
2026-05-06 13:45 49.99962 2.06838 19280 ft 379 kts 355°
2026-05-06 13:45 50.02601 2.06539 19863 ft 382 kts 355°
2026-05-06 13:46 50.05273 2.06237 20401 ft 387 kts 355°
2026-05-06 13:46 50.07971 2.05932 20980 ft 390 kts 355°
2026-05-06 13:46 50.10690 2.05624 21546 ft 394 kts 355°
2026-05-06 13:46 50.13435 2.05312 22098 ft 397 kts 355°
2026-05-06 13:47 50.16203 2.04998 22633 ft 401 kts 355°
2026-05-06 13:47 50.18999 2.04679 23161 ft 405 kts 355°
2026-05-06 13:47 50.21822 2.04358 23613 ft 409 kts 355°
2026-05-06 13:47 50.24674 2.04033 24037 ft 413 kts 354°
2026-05-06 13:48 50.27546 2.03705 24509 ft 415 kts 355°
2026-05-06 13:48 50.30430 2.03376 24986 ft 416 kts 355°
2026-05-06 13:48 50.33328 2.03044 25421 ft 419 kts 355°
2026-05-06 13:48 50.36220 2.02421 25814 ft 421 kts 342°
2026-05-06 13:49 50.38860 2.00463 26224 ft 422 kts 324°
2026-05-06 13:49 50.41125 1.97546 26700 ft 422 kts 318°
2026-05-06 13:49 50.43330 1.94482 27074 ft 425 kts 317°
2026-05-06 13:49 50.45517 1.91414 27441 ft 429 kts 317°
2026-05-06 13:50 50.47751 1.88296 27814 ft 431 kts 317°
2026-05-06 13:50 50.50006 1.85174 28224 ft 433 kts 317°
2026-05-06 13:50 50.52276 1.82052 28654 ft 434 kts 317°
2026-05-06 13:50 50.54557 1.78923 29069 ft 436 kts 318°
2026-05-06 13:51 50.56846 1.75784 29381 ft 439 kts 318°
2026-05-06 13:51 50.59157 1.72613 29682 ft 442 kts 318°
2026-05-06 13:51 50.61477 1.69423 30030 ft 444 kts 318°
2026-05-06 13:51 50.63808 1.66214 30339 ft 446 kts 318°
2026-05-06 13:52 50.66144 1.62993 30645 ft 446 kts 317°
2026-05-06 13:52 50.68474 1.59774 31081 ft 444 kts 317°
2026-05-06 13:52 50.70792 1.56565 31486 ft 443 kts 317°
2026-05-06 13:52 50.73107 1.53359 31800 ft 444 kts 317°
2026-05-06 13:53 50.75426 1.50141 32170 ft 443 kts 317°
2026-05-06 13:53 50.77739 1.46929 32552 ft 442 kts 317°
2026-05-06 13:53 50.80047 1.43721 32913 ft 441 kts 317°
2026-05-06 13:53 50.82352 1.40516 33289 ft 440 kts 317°
2026-05-06 13:54 50.84642 1.37328 33763 ft 437 kts 317°
2026-05-06 13:54 50.86915 1.34159 34148 ft 435 kts 317°
2026-05-06 13:54 50.89178 1.30998 34460 ft 433 kts 317°
2026-05-06 13:54 50.90673 1.28908 34670 ft 432 kts 317°
2026-05-06 13:55 50.92933 1.25744 34844 ft 435 kts 317°
2026-05-06 13:55 50.95209 1.22553 34956 ft 438 kts 317°
2026-05-06 13:55 50.97487 1.19355 35265 ft 437 kts 317°
2026-05-06 13:55 50.99760 1.16160 35461 ft 438 kts 317°
2026-05-06 13:56 51.02048 1.12941 35630 ft 440 kts 317°
2026-05-06 13:56 51.04333 1.09721 35924 ft 438 kts 316°
2026-05-06 13:56 51.06618 1.06532 36197 ft 438 kts 319°
2026-05-06 13:56 51.09054 1.03595 36363 ft 440 kts 322°
2026-05-06 13:57 51.11570 1.00809 36581 ft 441 kts 324°
2026-05-06 13:57 51.14113 0.98070 36792 ft 441 kts 324°
2026-05-06 13:57 51.16660 0.95331 36998 ft 442 kts 324°
2026-05-06 13:57 51.19202 0.92576 37208 ft 442 kts 324°
2026-05-06 13:58 51.21739 0.89799 37455 ft 442 kts 323°
2026-05-06 13:58 51.24264 0.87012 37670 ft 442 kts 323°
2026-05-06 13:58 51.26787 0.84209 37861 ft 442 kts 323°
2026-05-06 13:58 51.29275 0.81436 37983 ft 444 kts 323°
2026-05-06 13:59 51.34355 0.75752 37987 ft 445 kts 323°
2026-05-06 13:59 51.39404 0.70092 37960 ft 441 kts 323°
2026-05-06 14:00 51.44406 0.64469 37956 ft 437 kts 323°
2026-05-06 14:00 51.49364 0.58881 37959 ft 434 kts 323°
2026-05-06 14:01 51.54314 0.53285 37985 ft 437 kts 323°
2026-05-06 14:01 51.59326 0.47604 37976 ft 444 kts 322°
2026-05-06 14:02 51.64383 0.41857 37973 ft 446 kts 323°
2026-05-06 14:02 51.69425 0.36112 37988 ft 446 kts 322°
2026-05-06 14:03 51.74492 0.30322 37992 ft 446 kts 322°
2026-05-06 14:03 51.79472 0.24617 37987 ft 444 kts 322°
2026-05-06 14:04 51.84504 0.18834 37995 ft 442 kts 322°
2026-05-06 14:04 51.89503 0.13073 37987 ft 440 kts 322°
2026-05-06 14:05 51.94482 0.07319 37995 ft 438 kts 322°
2026-05-06 14:05 51.99427 0.01590 37989 ft 436 kts 322°
2026-05-06 14:06 52.04438 -0.03917 37987 ft 436 kts 328°
2026-05-06 14:06 52.09787 -0.08555 37998 ft 436 kts 330°
2026-05-06 14:07 52.15160 -0.13126 38002 ft 436 kts 329°
2026-05-06 14:07 52.20504 -0.17793 38002 ft 436 kts 329°
2026-05-06 14:08 52.25855 -0.22521 37999 ft 438 kts 329°
2026-05-06 14:08 52.31222 -0.27271 38006 ft 440 kts 329°
2026-05-06 14:09 52.36608 -0.32046 38000 ft 441 kts 329°
2026-05-06 14:09 52.41976 -0.36817 37993 ft 443 kts 329°
2026-05-06 14:10 52.47395 -0.41647 37995 ft 444 kts 329°
2026-05-06 14:10 52.52821 -0.46498 38009 ft 444 kts 329°
2026-05-06 14:11 52.58246 -0.51362 37998 ft 445 kts 328°
2026-05-06 14:11 52.63679 -0.56247 37991 ft 444 kts 328°
2026-05-06 14:12 52.69096 -0.61131 37992 ft 443 kts 328°
2026-05-06 14:12 52.74493 -0.66012 38025 ft 441 kts 328°
2026-05-06 14:13 52.79868 -0.70887 38044 ft 440 kts 328°
2026-05-06 14:13 52.85200 -0.75737 38044 ft 440 kts 328°
2026-05-06 14:14 52.90564 -0.80630 38036 ft 439 kts 328°
2026-05-06 14:14 52.95907 -0.85518 38039 ft 438 kts 328°
2026-05-06 14:15 53.01237 -0.90405 38054 ft 437 kts 328°
2026-05-06 14:15 53.06555 -0.95288 38039 ft 436 kts 328°
2026-05-06 14:16 53.11866 -1.00175 38037 ft 436 kts 328°
2026-05-06 14:16 53.17163 -1.05065 38046 ft 435 kts 328°
2026-05-06 14:17 53.22463 -1.09972 38039 ft 435 kts 328°
2026-05-06 14:17 53.27757 -1.14889 38055 ft 436 kts 328°
2026-05-06 14:18 53.33058 -1.19825 38045 ft 436 kts 328°
2026-05-06 14:18 53.38361 -1.24777 38051 ft 436 kts 328°
2026-05-06 14:19 53.43623 -1.29708 38046 ft 437 kts 328°
2026-05-06 14:19 53.48906 -1.34693 38042 ft 437 kts 328°
2026-05-06 14:20 53.54205 -1.39711 38039 ft 437 kts 328°
2026-05-06 14:20 53.59506 -1.44744 38044 ft 437 kts 328°
2026-05-06 14:21 53.64806 -1.49790 38047 ft 438 kts 328°
2026-05-06 14:21 53.70106 -1.54848 38044 ft 438 kts 328°
2026-05-06 14:22 53.75182 -1.60426 38044 ft 434 kts 316°
2026-05-06 14:22 53.79621 -1.67306 38047 ft 432 kts 315°
2026-05-06 14:23 53.84031 -1.74212 38047 ft 432 kts 315°
2026-05-06 14:23 53.88439 -1.81037 38047 ft 432 kts 315°
2026-05-06 14:24 53.92877 -1.87893 38038 ft 431 kts 315°
2026-05-06 14:24 53.97302 -1.94746 38036 ft 430 kts 315°
2026-05-06 14:25 54.01752 -2.01561 38033 ft 432 kts 319°
2026-05-06 14:25 54.06840 -2.07039 38041 ft 434 kts 327°
2026-05-06 14:26 54.12074 -2.12163 38039 ft 434 kts 327°
2026-05-06 14:26 54.14704 -2.14757 37590 ft 439 kts 327°
2026-05-06 14:26 54.17326 -2.17364 37273 ft 433 kts 327°
2026-05-06 14:27 54.19910 -2.19949 36843 ft 429 kts 327°
2026-05-06 14:27 54.22472 -2.22525 36461 ft 425 kts 327°
2026-05-06 14:27 54.24970 -2.25044 36104 ft 420 kts 327°
2026-05-06 14:27 54.27474 -2.27576 35723 ft 417 kts 327°
2026-05-06 14:28 54.29960 -2.30095 35328 ft 413 kts 327°
2026-05-06 14:28 54.32459 -2.32631 34958 ft 410 kts 327°
2026-05-06 14:28 54.34868 -2.35078 34582 ft 407 kts 327°
2026-05-06 14:28 54.37295 -2.37546 34216 ft 404 kts 327°
2026-05-06 14:29 54.39703 -2.39999 33802 ft 401 kts 327°
2026-05-06 14:29 54.42096 -2.42440 33376 ft 398 kts 327°
2026-05-06 14:29 54.44465 -2.44858 33010 ft 394 kts 326°
2026-05-06 14:29 54.46812 -2.47258 32624 ft 391 kts 326°
2026-05-06 14:30 54.49136 -2.49637 32283 ft 387 kts 327°
2026-05-06 14:30 54.51440 -2.52000 31905 ft 384 kts 327°
2026-05-06 14:30 54.53724 -2.54344 31554 ft 381 kts 327°
2026-05-06 14:30 54.55989 -2.56673 31202 ft 377 kts 327°
2026-05-06 14:31 54.58235 -2.58985 30852 ft 374 kts 327°
2026-05-06 14:31 54.60461 -2.61279 30508 ft 372 kts 327°
2026-05-06 14:31 54.62675 -2.63564 30170 ft 369 kts 327°
2026-05-06 14:31 54.64868 -2.65830 29787 ft 366 kts 327°
2026-05-06 14:32 54.67044 -2.68081 29432 ft 362 kts 327°
2026-05-06 14:32 54.69193 -2.70307 29063 ft 358 kts 327°
2026-05-06 14:32 54.71316 -2.72508 28732 ft 354 kts 327°
2026-05-06 14:32 54.73415 -2.74688 28403 ft 350 kts 327°
2026-05-06 14:33 54.75495 -2.76852 28063 ft 347 kts 327°
2026-05-06 14:33 54.77554 -2.78996 27703 ft 344 kts 326°
2026-05-06 14:33 54.79595 -2.81123 27377 ft 341 kts 326°
2026-05-06 14:33 54.81617 -2.83233 27028 ft 338 kts 326°
2026-05-06 14:34 54.83627 -2.85333 26685 ft 336 kts 326°
2026-05-06 14:34 54.85622 -2.87419 26344 ft 334 kts 326°
2026-05-06 14:34 54.87611 -2.89477 26010 ft 332 kts 328°
2026-05-06 14:34 54.89706 -2.91222 25539 ft 337 kts 334°
2026-05-06 14:35 54.91879 -2.92786 25085 ft 340 kts 335°
2026-05-06 14:35 54.94081 -2.94328 24619 ft 342 kts 335°
2026-05-06 14:35 54.96291 -2.95884 24157 ft 344 kts 334°
2026-05-06 14:35 54.98509 -2.97464 23685 ft 346 kts 334°
2026-05-06 14:36 55.00744 -2.99073 23108 ft 348 kts 334°
2026-05-06 14:36 55.02982 -3.00695 22583 ft 349 kts 334°
2026-05-06 14:36 55.05220 -3.02324 22103 ft 348 kts 334°
2026-05-06 14:36 55.07451 -3.03952 21616 ft 348 kts 334°
2026-05-06 14:37 55.09686 -3.05585 21127 ft 348 kts 334°
2026-05-06 14:37 55.11917 -3.07218 20637 ft 348 kts 334°
2026-05-06 14:37 55.14150 -3.08855 20168 ft 348 kts 334°
2026-05-06 14:37 55.16382 -3.10491 19678 ft 348 kts 334°
2026-05-06 14:38 55.17860 -3.11575 19377 ft 347 kts 334°
2026-05-06 14:38 55.20834 -3.13757 18756 ft 347 kts 334°
2026-05-06 14:38 55.23042 -3.15379 18308 ft 347 kts 334°
2026-05-06 14:38 55.25269 -3.17017 17768 ft 348 kts 334°
2026-05-06 14:39 55.27500 -3.18660 17264 ft 347 kts 334°
2026-05-06 14:39 55.29719 -3.20299 16795 ft 345 kts 334°
2026-05-06 14:39 55.31848 -3.22203 16318 ft 342 kts 327°
2026-05-06 14:39 55.33868 -3.24360 15867 ft 340 kts 326°
2026-05-06 14:40 55.35217 -3.25863 15550 ft 339 kts 325°
2026-05-06 14:40 55.37200 -3.28084 15102 ft 338 kts 325°
2026-05-06 14:40 55.39180 -3.30290 14639 ft 337 kts 326°
2026-05-06 14:40 55.41164 -3.32478 14185 ft 336 kts 326°
2026-05-06 14:41 55.43143 -3.34644 13732 ft 334 kts 326°
2026-05-06 14:41 55.45118 -3.36797 13229 ft 334 kts 326°
2026-05-06 14:41 55.47089 -3.38940 12745 ft 332 kts 326°
2026-05-06 14:41 55.49046 -3.41066 12334 ft 329 kts 327°
2026-05-06 14:42 55.50993 -3.43181 11875 ft 329 kts 327°
2026-05-06 14:42 55.52937 -3.45294 11420 ft 328 kts 327°
2026-05-06 14:42 55.54875 -3.47402 10972 ft 327 kts 327°
2026-05-06 14:42 55.56807 -3.49505 10540 ft 326 kts 327°
2026-05-06 14:43 55.58734 -3.51605 10106 ft 325 kts 327°
2026-05-06 14:43 55.60710 -3.53761 9964 ft 314 kts 327°
2026-05-06 14:43 55.62461 -3.55673 9923 ft 301 kts 327°
2026-05-06 14:43 55.64213 -3.57589 9838 ft 291 kts 327°
2026-05-06 14:44 55.65903 -3.59438 9754 ft 281 kts 327°
2026-05-06 14:44 55.67538 -3.61230 9612 ft 272 kts 327°
2026-05-06 14:44 55.69109 -3.62954 9199 ft 268 kts 327°
2026-05-06 14:45 55.72275 -3.66436 8328 ft 264 kts 327°
2026-05-06 14:45 55.73810 -3.68124 8070 ft 255 kts 327°
2026-05-06 14:45 55.75291 -3.69753 7865 ft 246 kts 326°
2026-05-06 14:45 55.76717 -3.71323 7652 ft 237 kts 326°
2026-05-06 14:46 55.78095 -3.72844 7407 ft 230 kts 326°
2026-05-06 14:46 55.79430 -3.74316 7209 ft 216 kts 326°
2026-05-06 14:46 55.80761 -3.75264 6902 ft 205 kts 356°
2026-05-06 14:46 55.82081 -3.74491 6422 ft 203 kts 43°
2026-05-06 14:47 55.82953 -3.72526 5860 ft 203 kts 54°
2026-05-06 14:47 55.83767 -3.70462 5303 ft 204 kts 57°
2026-05-06 14:47 55.84518 -3.68357 4809 ft 200 kts 60°
2026-05-06 14:47 55.85231 -3.66256 4305 ft 197 kts 61°
2026-05-06 14:48 55.85935 -3.64161 3761 ft 196 kts 61°
2026-05-06 14:48 55.86633 -3.62081 3296 ft 194 kts 61°
2026-05-06 14:48 55.87311 -3.60061 2986 ft 185 kts 61°
2026-05-06 14:48 55.87958 -3.58135 2712 ft 178 kts 61°